Weather in Sagly

Russia / Tyva Republic     50°29′38″N   91°19′52″E
temp.,
°C
wind,
m/s
gust,
m/s
humid.,
%
clouds,
%
prec.,
mm/h
press.,
hPa
HPBL,
m
5 march, fri
fri501:00−20s22720 0.0 103021
04:00−21s23732 0.0 102921
07:00−21ssw226719 0.1 103021
10:00−16s227388 0.0 102898
13:00−13sse447694 0.0 1025232
16:00−12sse2475100 0.0 1023223
19:00−14w2372100 0.1 102726
22:00−13w557126 0.1 103141
6 march, sat
sat601:00−15wsw447113 0.1 103429
04:00−15wsw445394 0.0 103426
07:00−16sw335993 0.0 103523
10:00−11ssw336999 0.0 103395
13:00−9s236899 0.0 1029237
16:00−10s237294 0.0 1026196
19:00−15sw336373 0.0 102721
22:00−15sw335067 0.0 102723
7 march, sun
sun701:00−15sw334738 0.0 102722
04:00−15sw33431 0.0 102622
07:00−15sw33411 0.0 102721
10:00−10ssw226213 0.0 102673
13:00−8sse226421 0.0 1024203
16:00−7s12678 0.0 1023221
19:00−12wsw33534 0.0 102621
22:00−12wsw234138 0.0 102821
8 march, mon
mon801:00−13wsw224469 0.0 102921
04:00−13sw2243100 0.0 102921
07:00−14ssw224597 0.0 103021
10:00−10s226352 0.0 102872
13:00−9se237426 0.0 1025174
16:00−8se227816 0.0 1023155
19:00−13sw226818 0.0 102421
22:00−12sw33570 0.0 102423
9 march, tue
tue901:00−11sw335717 0.0 102426
04:00−9wsw3358100 0.0 102527
07:00−11w235790 0.0 102721
10:00−6sw226698 0.0 102874
13:00−4sse126490 0.0 1026458
16:00−4sw156438 0.1 10251355
19:00−11sw227119 0.1 102721
22:00−12sw22680 0.0 102821